Weather History for KIND - June, 2013

Change the Weather History Date:

Thursday, June 13, 2013

  Actual Average Record
Temperature  
Mean Temperature 72 °F 72 °F  
Max Temperature 82 °F 82 °F 95 °F (1894)
Min Temperature 61 °F 62 °F 45 °F (1903)
Degree Days  
Heating Degree Days 0 0  
Month to date heating degree days 9 13  
Since 1 June heating degree days 9 13  
Since 1 July heating degree days 5405 5375  
Cooling Degree Days 7 7  
Month to date cooling degree days 61 75  
Year to date cooling degree days 190 159  
Since 1 June cooling degree days 61 75  
Growing Degree Days 21 (Base 50)    
Moisture  
Dew Point 62 °F    
Average Humidity 65    
Maximum Humidity 87    
Minimum Humidity 43    
Precipitation  
Precipitation 0.14 in 0.14 in 2.20 in (1972)
Month to date precipitation 1.48 1.85  
Year to date precipitation 23.31 19.25  
Snow  
Snow 0.00 in 0.00 in 0.00 in ()
Month to date snowfall 0.0 0.0  
Since 1 June snowfall 0.0 0.0  
Since 1 July snowfall 34.5 25.9  
Snow Depth 0.00 in    
Sea Level Pressure  
Sea Level Pressure 29.78 in    
Wind  
Wind Speed 15 mph (NW)    
Max Wind Speed 29 mph    
Max Gust Speed 37 mph    
Visibility 9 miles    
Events Rain , Thunderstorm    
T = Trace of Precipitation, MM = Missing Value Source: NWS Daily Summary

Daily Weather History Graph

Daily Weather History Graph

Search for Another Location

Airport or City:

Trip Planner

Search our weather history database for the weather conditions in past years. The results will help you decide how hot, cold, wet, or windy it might be!

Date:

Astronomy

Jun. 13, 2013 Rise Set
Actual Time 6:16 AM EDT 9:14 PM EDT
Civil Twilight 5:44 AM EDT 9:46 PM EDT
Nautical Twilight 5:02 AM EDT 10:27 PM EDT
Astronomical Twilight 4:15 AM EDT 11:15 PM EDT
Moon 10:52 AM EDT (6/13) No Moon Set
Length of Visible Light 16h 02m
Length of Day
14h 57m
Waxing Crescent, 21% of the Moon is Illuminated
Jun 13
Waxing Crescent
Jun 16
First Quarter
Jun 23
Full
Jun 30
Last Quarter
Jul 8
New

Hourly Weather History & Observations

Time (EDT) Temp. Heat Index Dew Point Humidity Pressure Visibility Wind Dir Wind Speed Gust Speed Precip Events Conditions
12:54 AM 82.0 °F 85.5 °F 69.1 °F 65% 29.63 in 10.0 mi SW 20.7 mph - N/A   Overcast
1:54 AM 82.0 °F 85.5 °F 69.1 °F 65% 29.62 in 10.0 mi SW 20.7 mph 29.9 mph N/A   Overcast
2:54 AM 81.0 °F 84.1 °F 69.1 °F 67% 29.61 in 10.0 mi WSW 20.7 mph 28.8 mph N/A   Mostly Cloudy
3:54 AM 80.1 °F 83.2 °F 70.0 °F 71% 29.62 in 10.0 mi WSW 16.1 mph - N/A   Mostly Cloudy
4:03 AM 78.8 °F - 66.2 °F 65% 29.66 in 10.0 mi North 15.0 mph 24.2 mph N/A   Mostly Cloudy
5:54 AM 71.1 °F - 66.0 °F 84% 29.60 in 10.0 mi SSW 5.8 mph - N/A   Mostly Cloudy
6:13 AM 71.6 °F - 66.2 °F 83% 29.63 in 10.0 mi SSW 4.6 mph - N/A Thunderstorm Thunderstorm
6:35 AM 71.6 °F - 66.2 °F 83% 29.63 in 10.0 mi SW 4.6 mph - N/A   Mostly Cloudy
6:54 AM 72.0 °F - 68.0 °F 87% 29.61 in 7.0 mi Variable 6.9 mph - 0.01 in Rain Light Rain
7:01 AM 71.6 °F - 68.0 °F 88% 29.66 in 9.0 mi NNW 21.9 mph 29.9 mph 0.02 in Rain Light Rain
7:03 AM 71.6 °F - 66.2 °F 83% 29.67 in 9.0 mi NW 28.8 mph 36.8 mph 0.02 in Rain , Thunderstorm Light Thunderstorms and Rain
7:15 AM 68.0 °F - 64.4 °F 88% 29.68 in 9.0 mi NW 19.6 mph 32.2 mph 0.04 in Rain , Thunderstorm Light Thunderstorms and Rain
7:39 AM 68.0 °F - 66.2 °F 94% 29.70 in 2.5 mi NW 16.1 mph 23.0 mph 0.07 in Rain , Thunderstorm Thunderstorms and Rain
7:52 AM 68.0 °F - 64.4 °F 88% 29.69 in 6.0 mi NNW 16.1 mph - 0.13 in Rain , Thunderstorm Light Thunderstorms and Rain
7:54 AM 68.0 °F - 64.9 °F 90% 29.68 in 6.0 mi NNW 15.0 mph - 0.13 in Rain , Thunderstorm Light Thunderstorms and Rain
8:03 AM 68.0 °F - 66.2 °F 94% 29.70 in 10.0 mi North 11.5 mph - 0.00 in   Mostly Cloudy
8:41 AM 69.8 °F - 66.2 °F 88% 29.72 in 10.0 mi NW 11.5 mph - 0.00 in   Mostly Cloudy
8:54 AM 70.0 °F - 66.0 °F 87% 29.71 in 10.0 mi NNW 16.1 mph 20.7 mph 0.00 in   Mostly Cloudy
9:06 AM 71.6 °F - 66.2 °F 83% 29.74 in 10.0 mi NW 16.1 mph - N/A   Mostly Cloudy
9:44 AM 71.6 °F - 64.4 °F 78% 29.77 in 10.0 mi NNW 18.4 mph - N/A   Mostly Cloudy
9:52 AM 68.0 °F - 62.6 °F 83% 29.77 in 10.0 mi NNW 16.1 mph - N/A   Overcast
9:54 AM 68.0 °F - 63.0 °F 84% 29.75 in 10.0 mi NNW 17.3 mph - N/A   Overcast
10:32 AM 66.2 °F - 62.6 °F 88% 29.80 in 10.0 mi NNW 18.4 mph 23.0 mph N/A   Overcast
10:54 AM 66.9 °F - 62.1 °F 84% 29.80 in 10.0 mi NNW 15.0 mph - N/A   Overcast
11:36 AM 68.0 °F - 62.6 °F 83% 29.83 in 10.0 mi NNW 15.0 mph - N/A   Overcast
11:54 AM 68.0 °F - 63.0 °F 84% 29.82 in 6.0 mi NNW 19.6 mph 23.0 mph 0.00 in   Light Drizzle
12:15 PM 68.0 °F - 62.6 °F 83% 29.85 in 10.0 mi North 13.8 mph 21.9 mph 0.00 in   Mostly Cloudy
12:52 PM 73.4 °F - 62.6 °F 69% 29.85 in 10.0 mi North 11.5 mph 20.7 mph 0.00 in   Mostly Cloudy
12:54 PM 73.0 °F - 63.0 °F 71% 29.83 in 10.0 mi North 13.8 mph 20.7 mph 0.00 in   Mostly Cloudy
1:22 PM 73.4 °F - 59.0 °F 61% 29.87 in 10.0 mi North 15.0 mph 21.9 mph N/A   Scattered Clouds
1:54 PM 75.9 °F - 55.0 °F 48% 29.86 in 10.0 mi North 11.5 mph 24.2 mph N/A   Scattered Clouds
2:54 PM 77.0 °F - 55.0 °F 47% 29.87 in 10.0 mi NNW 15.0 mph 27.6 mph N/A   Scattered Clouds
3:54 PM 77.0 °F - 57.0 °F 50% 29.88 in 10.0 mi NNW 18.4 mph - N/A   Mostly Cloudy
4:54 PM 77.0 °F - 54.0 °F 45% 29.89 in 10.0 mi NNW 18.4 mph 27.6 mph N/A   Scattered Clouds
5:54 PM 75.9 °F - 53.1 °F 45% 29.89 in 10.0 mi NNW 20.7 mph 28.8 mph N/A   Partly Cloudy
6:54 PM 73.9 °F - 53.1 °F 48% 29.91 in 10.0 mi North 23.0 mph 28.8 mph N/A   Partly Cloudy
7:54 PM 71.1 °F - 52.0 °F 51% 29.91 in 10.0 mi NNW 18.4 mph 26.5 mph N/A   Partly Cloudy
8:54 PM 69.1 °F - 52.0 °F 54% 29.94 in 10.0 mi NNW 15.0 mph - N/A   Partly Cloudy
9:54 PM 66.0 °F - 54.0 °F 65% 29.96 in 10.0 mi NW 10.4 mph - N/A   Partly Cloudy
10:54 PM 64.9 °F - 53.1 °F 65% 29.98 in 10.0 mi NNW 11.5 mph - N/A   Clear
11:54 PM 63.0 °F - 52.0 °F 67% 29.98 in 10.0 mi NNW 12.7 mph - N/A   Clear